Home   Weather   Casper   Past weeks
Flag for USA

Past Weather in Casper, Wyoming, USA — Yesterday and Last 2 Weeks

Now
50 °F

Sunny.


Feels Like: 48 °F
Forecast: 70 / 50 °F
Wind: 5 mph from Southwest

Location: Natrona County International Airport

Current Time: Jun 18, 2019 at 7:02:41 am

Latest Report: Jun 18, 2019 at 5:53 am


Visibility: 10 mi

Pressure: 29.97 "Hg (24.80 "Hg at 1569m altitude)

Humidity: 100%

Dew Point: 50 °F

Location of CasperLocation

Past Weather in Casper — Graph

°F

Casper Temperature Yesterday

Maximum temperature yesterday: 72 °F (at 2:53 pm)
Minimum temperature yesterday: 52 °F (at 4:38 am)
Average temperature yesterday: 60 °F

High & Low Weather Summary for the Past Weeks

 TemperatureHumidityPressure
High83 °F (Jun 7, 3:53 pm)100% (Jun 6, 4:53 am)30.47 "Hg (Jun 6, 4:53 am)
Low26 °F (Jun 10, 4:53 am)17% (Jun 9, 5:53 pm)29.53 "Hg (Jun 7, 4:53 pm)
Average59 °F64%29.97 "Hg
* Reported Jun 3 4:53 am — Jun 18 4:53 am, Casper. Weather by CustomWeather, © 2019

Note: Actual official high and low records may vary slightly from our data, if they occured in-between our weather recording intervals... More about our weather records

Advertising

Casper Weather History for the Previous 24 Hours

Scroll right to see more
 ConditionsComfort  
Time TempWeatherWind HumidityBarometerVisibility
4:53 am
Tue, Jun 18
50 °FClear.3 mph100%29.96 "Hg10 mi
3:53 am52 °FOvercast.7 mph100%29.94 "Hg10 mi
3:14 am54 °FMostly cloudy.3 mph97%30.10 "Hg10 mi
2:53 am55 °FOvercast.3 mph93%29.94 "Hg10 mi
2:36 am55 °FOvercast.5 mph93%30.11 "Hg10 mi
2:16 am54 °FMostly cloudy.6 mph100%30.11 "Hg10 mi
1:53 am55 °FOvercast.5 mph96%29.95 "Hg10 mi
12:53 am56 °FMostly cloudy.3 mph93%29.97 "Hg10 mi
11:53 pm
Mon, Jun 17
55 °FMostly cloudy.6 mph96%29.99 "Hg10 mi
10:53 pm56 °FMostly cloudy.3 mph93%30.00 "Hg10 mi
9:53 pm57 °FClear.5 mph87%30.01 "Hg10 mi
8:53 pm58 °FClear.7 mph84%29.98 "Hg10 mi
7:53 pm59 °FPartly sunny.12 mph78%29.99 "Hg10 mi
6:53 pm62 °FCloudy.13 mph73%29.97 "Hg10 mi
5:53 pm63 °FPartly sunny.13 mph65%29.96 "Hg10 mi
5:31 pm64 °FThundershowers. Partly sunny.16 mph63%30.08 "Hg10 mi
4:53 pm66 °FThundershowers. Scattered clouds.13 mph61%29.93 "Hg10 mi
4:35 pm66 °FThundershowers. Passing clouds.12 mph59%30.07 "Hg10 mi
3:53 pm69 °FSunny.7 mph47%29.92 "Hg10 mi
2:53 pm72 °FPassing clouds.10 mph44%29.91 "Hg10 mi
1:53 pm71 °FPassing clouds.8 mph45%29.93 "Hg10 mi
12:53 pm70 °FSunny.No wind49%29.95 "Hg10 mi
11:53 am66 °FBroken clouds.No wind59%29.98 "Hg10 mi
10:53 am64 °FPartly sunny.3 mph63%29.99 "Hg10 mi
10:17 am61 °FMore clouds than sun.6 mph75%30.14 "Hg10 mi
10:06 am60 °FMostly cloudy.No wind78%30.14 "Hg10 mi
9:53 am58 °FOvercast.No wind84%30.01 "Hg10 mi
9:10 am57 °FMore clouds than sun.No wind83%30.14 "Hg10 mi
8:53 am56 °FMostly cloudy.No wind87%30.00 "Hg10 mi
8:38 am56 °FMostly cloudy.3 mph87%30.13 "Hg10 mi
7:53 am55 °FOvercast.3 mph90%29.98 "Hg10 mi
Weather by CustomWeather, © 2019

See weather overview